Location: Banios
(43.0451°N, 0.2335°E)
Time: 13:13:56
(UTC+00:00)

Cosmos 2219 Rocket - Pass Details

Date: 25 January 2021
Orbit: 828 x 846 km, 71.0° (Epoch: 25 February)

Event Time Altitude Azimuth Distance (km) Brightness Sun altitude
Exits shadow 05:55:01 13° 326° (NNW) 2,245 4.0 -15.7°
Drops below altitude 10° 05:56:47 10° 345° (NNW) 2,442 4.3 -15.4°
Sets 06:00:44 0° 12° (NNE) 3,381 5.3 -14.7°
